This demonstration page uses our WeatherBlox Daily Observations layout. Learn more.

41.55636, -103.73856

Hourly Observations for January 12, 2019

Temp ( °F °C ) Dew Point ( °F °C ) Humidity (%) Winds ( mph kmh ) Pressure ( in mb ) Visibility ( mi km ) Precip ( " mm )
12:58 am 00:58 Cloudy with Light Snow 32 0 31 -0.6 96 96 NNE 12 19 30.23 1024 7 11.26538 0.04 1.016
1:58 am 01:58 Mostly Cloudy with Light Rain/Snow 32 -0.2 31 -0.7 96 96 N 12 19 30.24 1024 1 1.60934 0.05 1.27
2:58 am 02:58 Mostly Cloudy with Light Rain/Snow 32 -0.1 31 -0.6 96 96 N 12 19 30.24 1024 1 1.60934 0.04 1.016
3:58 am 03:58 Mostly Cloudy with Light Rain 32 -0.2 31 -0.8 96 96 N 14 22 30.27 1025 1 1.60934 0.01 0.254
4:58 am 04:58 Cloudy with Light Showers 31 -0.3 31 -0.8 96 96 NNW 8 13 30.26 1025 10 16.0934 0.02 0.508
5:58 am 05:58 Cloudy with Light Snow 31 -0.5 30 -1 96 96 NNW 8 13 30.26 1025 5 8.0467 0.02 0.508
6:58 am 06:58 Cloudy with Light Snow Showers 31 -0.5 30 -1.2 95 95 NNW 9 15 30.25 1024 10 16.0934 0.01 0.254
7:58 am 07:58 Cloudy with Light Snow Showers 31 -0.6 29 -1.8 92 92 NW 10 17 30.27 1025 10 16.0934 0.01 0.254
8:58 am 08:58 Mostly Cloudy 31 -0.6 28 -2.2 89 89 NNW 10 17 30.27 1025 10 16.0934 0 0
9:58 am 09:58 Mostly Cloudy 29 -1.7 26 -3.3 89 89 NNW 10 17 30.29 1026 10 16.0934 N/A
10:58 am 10:58 Mostly Cloudy 29 -1.7 26 -3.5 88 88 N 10 17 30.28 1025 10 16.0934 N/A
11:58 am 11:58 Mostly Clear 26 -3.1 23 -5 87 87 N 8 13 30.28 1025 10 16.0934 0 0
12:58 pm 12:58 Clear 21 -6.3 20 -6.9 96 96 WNW 10 17 30.32 1027 10 16.0934 N/A
1:58 pm 13:58 Clear 19 -7.1 17 -8.4 91 91 W 13 20 30.34 1027 10 16.0934 N/A
2:58 pm 14:58 Sunny 22 -5.4 18 -7.6 85 85 WNW 9 15 30.33 1027 10 16.0934 N/A
3:58 pm 15:58 Sunny 23 -4.8 20 -6.8 86 86 W 9 15 30.35 1028 10 16.0934 N/A
4:58 pm 16:58 Sunny 26 -3.2 23 -5.1 87 87 WNW 8 13 30.36 1028 10 16.0934 N/A
5:58 pm 17:58 Sunny 29 -1.5 26 -3.6 86 86 WNW 8 13 30.32 1027 10 16.0934 N/A
6:58 pm 18:58 Sunny 32 0.1 28 -2.5 83 83 NW 8 13 30.27 1025 10 16.0934 N/A
7:58 pm 19:58 Sunny 35 1.8 27 -2.8 72 72 NW 9 15 30.24 1024 10 16.0934 N/A
8:58 pm 20:58 Sunny 37 2.5 26 -3.2 66 66 NNW 7 11 30.24 1024 10 16.0934 N/A
9:58 pm 21:58 Sunny 37 2.8 25 -4 61 61 N 6 9 30.25 1024 10 16.0934 N/A
10:58 pm 22:58 Sunny 35 1.9 24 -4.3 64 64 NW 6 9 30.27 1025 10 16.0934 N/A
11:58 pm 23:58 Clear 31 -0.4 23 -4.9 72 72 Calm 30.32 1027 10 16.0934 N/A

Powered by AerisWeather